Weather History for Medford, OR

Change the Weather History Date:

Sunday, October 13, 2013

  Actual Average Record
Temperature  
Mean Temperature 52 °F 57 °F  
Max Temperature 63 °F 72 °F 88 °F (1978)
Min Temperature 41 °F 43 °F 27 °F (1928)
Degree Days  
Heating Degree Days 13 8  
Month to date heating degree days 163 79  
Since 1 July heating degree days 247 148  
Cooling Degree Days 0 0  
Month to date cooling degree days 0 8  
Year to date cooling degree days 1057 827  
Growing Degree Days 2 (Base 50)    
Moisture  
Dew Point 40 °F    
Average Humidity 68    
Maximum Humidity 96    
Minimum Humidity 39    
Precipitation  
Precipitation 0.00 in 0.03 in 0.47 in (1980)
Month to date precipitation 0.19 0.31  
Year to date precipitation 7.50 11.02  
Snow  
Snow 0.00 in 0.00 in - ()
Month to date snowfall 0.0 0.0  
Since 1 July snowfall 0.0 0.0  
Snow Depth 0.00 in    
Sea Level Pressure  
Sea Level Pressure 30.18 in    
Wind  
Wind Speed 1 mph (North)    
Max Wind Speed 8 mph    
Max Gust Speed 13 mph    
Visibility 8 miles    
Events Fog    
T = Trace of Precipitation, MM = Missing Value Source: NWS Daily Summary

Daily Weather History Graph

Daily Weather History Graph

Search for Another Location

Airport:

Trip Planner

Search our weather history database for the weather conditions in past years. The results will help you decide how hot, cold, wet, or windy it might be!

Date:

Astronomy

Oct. 13, 2013 Rise Set
Actual Time 7:22 AM PDT 6:32 PM PDT
Civil Twilight 6:54 AM PDT 7:00 PM PDT
Nautical Twilight 6:21 AM PDT 7:32 PM PDT
Astronomical Twilight 5:49 AM PDT 8:05 PM PDT
Moon 3:32 PM PDT (10/13) 1:32 AM PDT (10/13)
Length of Visible Light 12h 06m
Length of Day
11h 09m
Waxing Gibbous, 70% of the Moon is Illuminated
Oct 13
Waxing Gibbous
Oct 18
Full
Oct 26
Last Quarter
Nov 3
New
Nov 9
First Quarter

Hourly Weather History & Observations

Time (PDT) Temp. Windchill Dew Point Humidity Pressure Visibility Wind Dir Wind Speed Gust Speed Precip Events Conditions
12:02 AM 44.6 °F - 42.8 °F 93% 30.12 in 1.2 mi Calm Calm - N/A   Mostly Cloudy
12:10 AM 42.8 °F - 41.0 °F 93% 30.12 in 0.2 mi Calm Calm - N/A Fog Fog
12:21 AM 42.8 °F - 41.0 °F 93% 30.12 in 0.2 mi Calm Calm - N/A Fog Fog
12:41 AM 42.8 °F - 41.0 °F 93% 30.12 in 0.2 mi Calm Calm - N/A Fog Fog
12:53 AM 42.1 °F 40.2 °F 41.0 °F 96% 30.13 in 0.2 mi North 3.5 mph - N/A Fog Fog
1:16 AM 42.8 °F 41.1 °F 41.0 °F 93% 30.12 in 1.0 mi North 3.5 mph - N/A   Mist
1:20 AM 42.8 °F 41.1 °F 41.0 °F 93% 30.12 in 4.0 mi NNE 3.5 mph - N/A   Overcast
1:53 AM 41.0 °F - 39.9 °F 96% 30.14 in 10.0 mi Calm Calm - N/A   Overcast
2:12 AM 41.0 °F - 39.2 °F 93% 30.13 in 10.0 mi Calm Calm - N/A   Overcast
2:26 AM 41.0 °F 39.0 °F 39.2 °F 93% 30.14 in 1.5 mi West 3.5 mph - N/A   Overcast
2:53 AM 42.1 °F - 41.0 °F 96% 30.15 in 4.0 mi Calm Calm - N/A   Overcast
3:53 AM 42.1 °F - 39.9 °F 92% 30.15 in 10.0 mi Calm Calm - N/A   Overcast
4:19 AM 42.8 °F - 39.2 °F 87% 30.15 in 10.0 mi Calm Calm - N/A   Overcast
4:39 AM 42.8 °F - 39.2 °F 87% 30.16 in 10.0 mi Calm Calm - N/A   Overcast
4:53 AM 42.1 °F - 39.9 °F 92% 30.17 in 10.0 mi Calm Calm - N/A   Overcast
5:19 AM 42.8 °F - 39.2 °F 87% 30.17 in 10.0 mi Calm Calm - N/A   Overcast
5:53 AM 42.1 °F 39.2 °F 39.0 °F 89% 30.18 in 10.0 mi NE 4.6 mph - N/A   Overcast
6:05 AM 42.8 °F 41.1 °F 39.2 °F 87% 30.18 in 10.0 mi NNE 3.5 mph - N/A   Overcast
6:16 AM 42.8 °F 41.1 °F 39.2 °F 87% 30.18 in 10.0 mi NE 3.5 mph - N/A   Overcast
6:53 AM 42.1 °F - 39.0 °F 89% 30.19 in 10.0 mi Calm Calm - N/A   Overcast
7:53 AM 43.0 °F - 39.9 °F 89% 30.21 in 9.0 mi Calm Calm - N/A   Overcast
8:53 AM 43.0 °F - 39.0 °F 86% 30.23 in 10.0 mi Calm Calm - N/A   Overcast
9:53 AM 45.0 °F - 41.0 °F 86% 30.24 in 8.0 mi Calm Calm - N/A   Overcast
10:38 AM 46.4 °F - 41.0 °F 81% 30.22 in 10.0 mi Calm Calm - N/A   Mostly Cloudy
10:53 AM 48.9 °F - 41.0 °F 74% 30.23 in 10.0 mi Calm Calm - N/A   Scattered Clouds
11:07 AM 50.0 °F - 42.8 °F 76% 30.22 in 10.0 mi NE 3.5 mph - N/A   Mostly Cloudy
11:53 AM 50.0 °F - 39.9 °F 68% 30.22 in 10.0 mi Calm Calm - N/A   Mostly Cloudy
12:00 PM 50.0 °F - 39.2 °F 66% 30.20 in 10.0 mi Calm Calm - N/A   Scattered Clouds
12:53 PM 53.1 °F - 39.9 °F 61% 30.19 in 10.0 mi NNW 4.6 mph - N/A   Partly Cloudy
1:53 PM 55.9 °F - 41.0 °F 57% 30.17 in 10.0 mi Calm Calm - N/A   Clear
2:53 PM 61.0 °F - 37.9 °F 42% 30.15 in 10.0 mi Calm Calm - N/A   Clear
3:53 PM 62.1 °F - 37.9 °F 41% 30.14 in 10.0 mi NW 4.6 mph - N/A   Clear
4:53 PM 62.1 °F - 37.9 °F 41% 30.14 in 10.0 mi West 5.8 mph - N/A   Clear
5:53 PM 62.1 °F - 37.0 °F 39% 30.15 in 10.0 mi Calm Calm - N/A   Clear
6:53 PM 57.0 °F - 41.0 °F 55% 30.16 in 10.0 mi SSW 4.6 mph - N/A   Clear
7:53 PM 53.1 °F - 42.1 °F 66% 30.19 in 10.0 mi SW 3.5 mph - N/A   Clear
8:53 PM 51.1 °F - 43.0 °F 74% 30.21 in 10.0 mi Calm Calm - N/A   Clear
9:53 PM 46.9 °F - 41.0 °F 80% 30.23 in 10.0 mi Calm Calm - N/A   Clear
10:53 PM 46.9 °F - 39.9 °F 77% 30.24 in 10.0 mi Calm Calm - N/A   Clear
11:53 PM 43.0 °F - 39.0 °F 86% 30.25 in 10.0 mi Calm Calm - N/A   Clear